Voltar ao catálogo

USA 389

AtivoMilitarVLEO
NORAD 60172·PAYLOAD·🇺🇸 United States

Lançado Jun 29, 2024 de Vandenberg Space Force Base

Loading…

Próximas Passagens (próximas 24 horas)

TLE

ObsoletoSource: Mike McCants

Época: Feb 2, 2026, 17:24 UTC

1 60172U 24121Q   26033.72519570 0.00000000  00000-0  00000-0 0    09
2 60172  69.9970   4.7706 0002000 187.2068 172.7931 14.96713000    07

Acompanhe USA 389 em tempo real com AllMySat

Download on the App Store